Weather History for FBMN - October, 2013

Change the Weather History Date:

Sunday, October 27, 2013

  Actual Average Record
Temperature  
Mean Temperature 84 °F -  
Max Temperature 100 °F 91 °F 100 °F (2004)
Min Temperature 69 °F 69 °F 62 °F (2007)
Cooling Degree Days 20    
Growing Degree Days 34 (Base 50)    
Moisture  
Dew Point 48 °F    
Average Humidity 30    
Maximum Humidity 64    
Minimum Humidity 11    
Precipitation  
Precipitation 0.00 in - - ()
Sea Level Pressure  
Sea Level Pressure 29.94 in    
Wind  
Wind Speed 5 mph ()    
Max Wind Speed 16 mph    
Max Gust Speed -    
Visibility 6.2 miles    
Events      
Averages and records for this station are not official NWS values.
T = Trace of Precipitation, MM = Missing Value Source: Averaged Metar Reports

Daily Weather History Graph

Daily Weather History Graph

Search for Another Location

Airport or City:

Trip Planner

Search our weather history database for the weather conditions in past years. The results will help you decide how hot, cold, wet, or windy it might be!

Date:

Astronomy

Oct. 27, 2013 Rise Set
Actual Time 5:47 AM CAT 6:33 PM CAT
Civil Twilight 5:24 AM CAT 6:55 PM CAT
Nautical Twilight 4:58 AM CAT 7:22 PM CAT
Astronomical Twilight 4:30 AM CAT 7:49 PM CAT
Moon 12:43 AM CAT (10/27) 12:23 PM CAT (10/27)
Length of Visible Light 13h 31m
Length of Day
12h 45m
Last Quarter, 46% of the Moon is Illuminated
Oct 27
Last Quarter
Nov 3
New
Nov 10
First Quarter
Nov 17
Full
Nov 25
Last Quarter

Hourly Weather History & Observations

Time (CAT) Temp. Heat Index Dew Point Humidity Pressure Visibility Wind Dir Wind Speed Gust Speed Precip Events Conditions
2:00 AM 75.2 °F - 57.2 °F 53% 29.92 in - SSW 5.8 mph - N/A   Clear
3:00 AM 77.0 °F - 57.2 °F 50% 29.92 in - NE 4.6 mph - N/A   Clear
4:00 AM 75.2 °F - 57.2 °F 53% 29.92 in - SSE 3.5 mph - N/A   Clear
5:00 AM 71.6 °F - 57.2 °F 60% 29.92 in - Calm Calm - N/A   Clear
6:00 AM 69.8 °F - 57.2 °F 64% 29.92 in - ESE 8.1 mph - N/A   Clear
7:00 AM 75.2 °F - 53.6 °F 47% 29.98 in - South 4.6 mph - N/A   Clear
8:00 AM 80.6 °F 80.3 °F 53.6 °F 39% 30.01 in - Calm Calm - N/A   Clear
9:00 AM 86.0 °F 85.4 °F 59.0 °F 40% 30.06 in - NNE 16.1 mph - N/A   Clear
10:00 AM 91.4 °F - 51.8 °F 26% 30.01 in - North 5.8 mph - N/A   Clear
11:00 AM 93.2 °F - 51.8 °F 24% 29.98 in - NW 8.1 mph - N/A   Clear
12:00 PM 95.0 °F - 51.8 °F 23% 29.98 in - NW 6.9 mph - N/A   Clear
1:00 PM 96.8 °F - 50.0 °F 20% 29.95 in 6.2 mi NW 9.2 mph - N/A   Scattered Clouds
2:00 PM 96.8 °F - 48.2 °F 19% 29.92 in 6.2 mi NNW 6.9 mph - N/A   Scattered Clouds
3:00 PM 98.6 °F - 44.6 °F 16% 29.89 in 6.2 mi East 5.8 mph - N/A   Scattered Clouds
4:00 PM 100.4 °F - 44.6 °F 15% 29.89 in 6.2 mi NW 6.9 mph - N/A   Scattered Clouds
5:00 PM 98.6 °F - 42.8 °F 15% 29.89 in 6.2 mi NW 8.1 mph - N/A   Partly Cloudy
6:00 PM 96.8 °F - 41.0 °F 15% 29.89 in 6.2 mi NW 8.1 mph - N/A   Partly Cloudy
7:00 PM 93.2 °F - 42.8 °F 17% 29.89 in - NW 3.5 mph - N/A   Clear
8:00 PM 91.4 °F - 35.6 °F 14% 29.95 in - South 5.8 mph - N/A   Clear
9:00 PM 89.6 °F - 28.4 °F 11% 29.95 in - South 5.8 mph - N/A   Clear
10:00 PM 84.2 °F - 28.4 °F 13% 29.98 in - South 3.5 mph - N/A   Clear